Weather Roundup
Issued by NWS

Home | Current Version | Previous Version | Text Only | Print | Product List | Glossary On
Versions: 1 2 3 4 5 6 7 8 9 10 11 12 13 14 15 16 17 18 19 20 21 22 23 24 25 26 27 28 29 30 31 32 33 34 35 36 37 38 39 40 41 42 43 44 45 46 47 48 49 50
000
NZUS93 KARX 050159
HRRWXR

CURRENT HOURLY OBSERVATIONS ACROSS
MUCH OF THE UPPER MISSISSIPPI VALLEY
NATIONAL WEATHER SERVICE LA CROSSE WI
800 PM CST WED MAR 04 2015


...SOUTHEAST MINNESOTA...


CITY           SKY/WX    TMP DP  RH WIND       PRES   REMARKS
ROCHESTER      PTCLDY     2  -7  66 W12       30.33R WCI -15
ROCHESTER/MAYO FAIR       6  -4  63 W13       30.33R WCI -11
WINONA         CLEAR     10  -4  52 W9        30.36R WCI  -2
AUSTIN         CLEAR      3  -6  66 NW10      30.36R WCI -12
ALBERT LEA     PTCLDY     3  -4  72 NW6       30.37R WCI  -8
DODGE CENTER   PTCLDY     1  -6  71 W12       30.32R WCI -15
PRESTON        CLEAR      3  -6  65 NW14      30.34R WCI -15
OWATONNA       CLEAR      1  -8  66 W9        30.35R WCI -14
FARIBAULT      CLEAR      1  -8  66 W9        30.35R WCI -14
$$

...ELSEWHERE IN MINNESOTA...


CITY           SKY/WX    TMP DP  RH WIND       PRES   REMARKS
MINNEAPOLIS    PTCLDY     2 -11  54 NW12      30.35R WCI -15
INTNL FALLS    CLEAR     -7 -15  68 W6        30.25R WCI -20
DULUTH         CLEAR     -3 -16  53 W7        30.22R WCI -16
RED WING       CLEAR      5 -11  47 NW7       30.33R WCI  -7
REDWOOD FALLS  CLEAR      0  -9  65 NW10      30.39R WCI -16
MANKATO        PTCLDY     1  -8  66 NW13      30.37R WCI -16
FAIRMONT       CLEAR      3  -8  60 NW13      30.37R WCI -14
$$

...SOUTHWEST WISCONSIN...


CITY           SKY/WX    TMP DP  RH WIND       PRES   REMARKS
LA CROSSE      CLEAR      9  -3  58 W10       30.33R WCI  -5
PRAIRIE DU CHI PTCLDY     9  -2  62 W7        30.33R WCI  -2
BOSCOBEL       PTCLDY    10  -4  53 W5        30.33R WCI   2
LONE ROCK      NOT AVBL
PLATTEVILLE    CLEAR      8  -2  63 W9        30.28R WCI  -6
FORT MC COY    PTCLDY     9  -4  55 W6        30.30R WCI  -1
VIROQUA        FAIR       6  -5  60 NW12      30.25R WCI  -9
WIS DELLS      NOT AVBL
$$

...ELSEWHERE IN WISCONSIN...


CITY           SKY/WX    TMP DP  RH WIND       PRES   REMARKS
MILWAUKEE      PTCLDY    15  -6  39 NW7       30.24R WCI   5
MADISON        PTCLDY    11  -5  48 NW6       30.26R WCI   1
GREEN BAY      PTCLDY     6  -8  52 W10       30.25R WCI  -9
EAU CLAIRE     NOT AVBL
BLACK RVR FLS  FAIR       3 -10  55 CALM      30.30R
MEDFORD        CLEAR      0 -13  54 NW6       30.20R WCI -12
WAUSAU         CLEAR      3 -12  49 NW7       30.22R WCI  -9
WIS RAPIDS     CLEAR      4 -12  48 NW6       30.27R WCI  -7
MARSHFIELD     CLEAR      3 -11  52 W8        30.24R WCI -10
RICE LAKE      FAIR       0 -14  51 CALM      30.29R
$$

...NORTHEAST IOWA...


CITY           SKY/WX    TMP DP  RH WIND       PRES   REMARKS
DECORAH        CLEAR      7  -2  66 NW9       30.28S WCI  -7
MASON CITY     CLEAR      4  -5  66 NW15      30.38R WCI -14
CHARLES CITY   MOCLDY     7   1  78 NW13      30.33R WCI  -9
OELWEIN        PTCLDY     1  -2  85 NW8       30.32R WCI -12
$$

...ELSEWHERE IN IOWA...


CITY           SKY/WX    TMP DP  RH WIND       PRES   REMARKS
DES MOINES     PTCLDY    17   3  54 NW15      30.37R WCI   2
IOWA CITY      CLOUDY    15   3  59 N7        30.39R WCI   5
FORT DODGE     MOCLDY    10   3  72 NW8       30.38R WCI  -1
$$

...NORTHERN ILLINOIS...


CITY           SKY/WX    TMP DP  RH WIND       PRES   REMARKS
CHICAGO-OHARE  MOCLDY    15  -1  49 NW12      30.27R WCI   2
CHICAGO-MIDWAY MOCLDY    18   3  52 W9        30.29R WCI   7
MOLINE         PTCLDY    15   0  51 NW9       30.37R WCI   3
ROCKFORD       PTCLDY    11  -3  53 W9        30.32R WCI  -2
PEORIA         FAIR      17   2  51 NW5       30.36R WCI  10
$$

NOTE: "FAIR" INDICATES FEW OR NO CLOUDS BELOW 12,000 FEET WITH NO
SIGNIFICANT WEATHER AND/OR OBSTRUCTIONS TO VISIBILITY. WIND
SPEEDS ARE IN MILES-PER-HOUR.



USA.gov is the U.S. government's official web portal to all federal, state and local government web resources and services.